GW6055 Weather Reports


time (UTC)temp
C
wind
direction
speed
KPH
gust
KPH
rain 1hr
cm
rain 24hr
cm
rain mn
cm
humidity
%
barometer
mb
20260505223738 24 238 6.4 12.9 0.00 0.00 0.00 38 1012.0
20260505223234 24 185 6.4 16.1 0.00 0.00 0.00 38 1012.1
20260505222731 25 252 11.3 20.9 0.00 0.00 0.00 37 1011.8
20260505222227 24 260 14.5 20.9 0.00 0.00 0.00 38 1012.0
20260505221724 24 172 4.8 20.9 0.00 0.00 0.00 40 1011.9
20260505221221 24 150 3.2 14.5 0.00 0.00 0.00 43 1012.0
20260505220718 24 255 12.9 17.7 0.00 0.00 0.00 41 1012.1
20260505220216 24 250 3.2 12.9 0.00 0.00 0.00 42 1012.2
20260505215713 25 51 1.6 14.5 0.00 0.00 0.00 42 1012.1
20260505215211 25 271 6.4 20.9 0.00 0.00 0.00 40 1012.4
20260505214708 25 194 3.2 16.1 0.00 0.00 0.00 41 1012.1
20260505214206 25 124 6.4 16.1 0.00 0.00 0.00 41 1012.2
20260505213703 25 185 6.4 16.1 0.00 0.00 0.00 39 1012.2
20260505213200 25 317 6.4 16.1 0.00 0.00 0.00 40 1012.2
20260505212656 25 151 6.4 12.9 0.00 0.00 0.00 43 1012.1
20260505212153 25 211 4.8 6.4 0.00 0.00 0.00 47 1012.2
20260505211650 25 159 1.6 6.4 0.00 0.00 0.00 48 1012.1
20260505211147 25 245 6.4 17.7 0.00 0.00 0.00 46 1012.3
20260505210644 24 186 6.4 12.9 0.00 0.00 0.00 46 1012.2
20260505210141 23 161 3.2 17.7 0.00 0.00 0.00 47 1012.5
20260505205638 23 228 8.0 17.7 0.00 0.00 0.00 47 1012.5
20260505205136 23 230 4.8 16.1 0.00 0.00 0.00 47 1012.6
20260505204633 24 204 6.4 17.7 0.00 0.00 0.00 46 1012.5
20260505204131 24 211 4.8 11.3 0.00 0.00 0.00 46 1012.7
20260505203627 25 189 3.2 16.1 0.00 0.00 0.00 44 1012.8
20260505203124 25 76 6.4 12.9 0.00 0.00 0.00 45 1012.8
20260505202620 25 218 11.3 24.1 0.00 0.00 0.00 43 1013.0
20260505202116 24 219 9.7 16.1 0.00 0.00 0.00 43 1013.1
20260505201613 24 197 17.7 22.5 0.00 0.00 0.00 44 1013.1
20260505201111 25 244 11.3 12.9 0.00 0.00 0.00 44 1013.1
20260505200609 24 237 8.0 12.9 0.00 0.00 0.00 45 1013.1
20260505200105 25 248 9.7 22.5 0.00 0.00 0.00 44 1013.3
20260505195601 25 256 11.3 17.7 0.00 0.00 0.00 43 1013.3
20260505195059 24 167 1.6 17.7 0.00 0.00 0.00 48 1013.3
20260505194556 24 149 9.7 17.7 0.00 0.00 0.00 44 1013.6
20260505194051 25 162 8.0 20.9 0.00 0.00 0.00 42 1013.4
20260505193549 24 271 6.4 12.9 0.00 0.00 0.00 43 1013.3
20260505193046 24 272 6.4 11.3 0.00 0.00 0.00 43 1013.4
20260505192545 23 195 8.0 12.9 0.00 0.00 0.00 42 1013.7
20260505192042 23 65 3.2 17.7 0.00 0.00 0.00 42 1013.6
20260505191540 23 236 14.5 22.5 0.00 0.00 0.00 43 1013.9
20260505191038 25 241 16.1 20.9 0.00 0.00 0.00 43 1013.8
20260505190537 24 195 9.7 14.5 0.00 0.00 0.00 46 1013.7
20260505190034 24 214 3.2 9.7 0.00 0.00 0.00 41 1013.7
20260505185531 23 204 1.6 12.9 0.00 0.00 0.00 44 1013.9
20260505185027 23 237 6.4 12.9 0.00 0.00 0.00 43 1014.1
20260505184524 23 252 3.2 14.5 0.00 0.00 0.00 43 1014.3
20260505184021 23 165 12.9 14.5 0.00 0.00 0.00 43 1014.2
20260505183518 23 75 3.2 12.9 0.00 0.00 0.00 44 1014.6
20260505183015 24 125 11.3 27.4 0.00 0.00 0.00 43 1014.5
20260505182512 23 207 4.8 14.5 0.00 0.00 0.00 45 1014.8
20260505182008 23 196 1.6 11.3 0.00 0.00 0.00 45 1014.8
20260505181505 23 158 6.4 16.1 0.00 0.00 0.00 44 1014.8
20260505181002 23 231 14.5 24.1 0.00 0.00 0.00 43 1015.1
20260505180458 23 281 4.8 22.5 0.00 0.00 0.00 44 1015.0
20260505175955 23 299 14.5 16.1 0.00 0.00 0.00 44 1015.1
20260505175451 23 253 11.3 22.5 0.00 0.00 0.00 45 1015.3
20260505174948 23 222 9.7 14.5 0.00 0.00 0.00 47 1015.3
20260505174445 23 115 3.2 9.7 0.00 0.00 0.00 46 1015.3
20260505173941 22 143 3.2 9.7 0.00 0.00 0.00 47 1015.3
20260505173438 23 125 3.2 14.5 0.00 0.00 0.00 45 1015.4
20260505172935 22 139 1.6 9.7 0.00 0.00 0.00 48 1015.5
20260505172433 23 204 1.6 12.9 0.00 0.00 0.00 48 1015.6
20260505171932 23 217 14.5 17.7 0.00 0.00 0.00 46 1015.8
20260505171430 23 200 9.7 11.3 0.00 0.00 0.00 47 1016.0
20260505170926 22 216 8.0 14.5 0.00 0.00 0.00 49 1016.1
20260505170422 22 242 4.8 16.1 0.00 0.00 0.00 49 1016.1
20260505165918 22 266 3.2 14.5 0.00 0.00 0.00 49 1015.9
20260505165414 22 236 9.7 17.7 0.00 0.00 0.00 51 1016.0
20260505164909 22 134 3.2 9.7 0.00 0.00 0.00 51 1016.1
20260505164407 22 253 8.0 14.5 0.00 0.00 0.00 52 1016.1
20260505163905 22 196 9.7 25.7 0.00 0.00 0.00 51 1016.0
20260505163403 22 211 3.2 6.4 0.00 0.00 0.00 53 1016.1
20260505162902 23 235 4.8 17.7 0.00 0.00 0.00 54 1016.1
20260505162357 23 224 1.6 4.8 0.00 0.00 0.00 57 1016.0
20260505161854 22 262 6.4 12.9 0.00 0.00 0.00 54 1016.2
20260505161351 22 228 4.8 9.7 0.00 0.00 0.00 53 1016.2
20260505160848 23 239 4.8 14.5 0.00 0.00 0.00 55 1016.2
20260505160347 22 129 3.2 4.8 0.00 0.00 0.00 55 1016.0
20260505153326 22 179 1.6 11.3 0.00 0.00 0.00 59 1016.0
20260505152823 22 260 3.2 3.2 0.00 0.00 0.00 55 1015.7
20260505152320 22 197 1.6 6.4 0.00 0.00 0.00 57 1016.0
20260505151819 21 262 6.4 9.7 0.00 0.00 0.00 57 1016.0
20260505151316 21 228 6.4 6.4 0.00 0.00 0.00 56 1016.0
20260505150813 21 183 1.6 6.4 0.00 0.00 0.00 57 1015.9
20260505150310 22 182 3.2 4.8 0.00 0.00 0.00 54 1015.9
20260505140235 20 147 3.2 4.8 0.00 0.00 0.00 56 1015.9
20260505130158 16 200 3.2 3.2 0.00 0.00 0.00 64 1016.0
20260505124648 17 146 0.0 3.2 0.00 0.00 0.00 62 1016.0
20260505124145 17 162 0.0 1.6 0.00 0.00 0.00 66 1015.8
20260505123641 17 153 0.0 0.0 0.00 0.00 0.00 67 1015.9
20260505123138 16 129 0.0 1.6 0.00 0.00 0.00 69 1015.9
20260505122634 16 134 0.0 0.0 0.00 0.00 0.00 70 1015.7
20260505122132 15 146 0.0 0.0 0.00 0.00 0.00 72 1015.9
20260505121628 15 152 0.0 1.6 0.00 0.00 0.00 72 1015.7
20260505121125 16 110 1.6 1.6 0.00 0.00 0.00 71 1015.6
20260505120621 15 142 0.0 0.0 0.00 0.00 0.00 73 1015.6
20260505120117 14 135 0.0 0.0 0.00 0.00 0.00 76 1015.5
20260505115612 12 146 0.0 0.0 0.00 0.00 0.00 80 1015.4
20260505115109 11 131 0.0 1.6 0.00 0.00 0.00 82 1015.3
20260505114606 11 121 1.6 1.6 0.00 0.00 0.00 82 1015.2
20260505114103 11 132 1.6 1.6 0.00 0.00 0.00 82 1015.3
20260505113559 11 164 0.0 1.6 0.00 0.00 0.00 81 1015.5
20260505113056 11 164 0.0 0.0 0.00 0.00 0.00 82 1015.2
20260505112552 10 212 1.6 1.6 0.00 0.00 0.00 84 1015.0
20260505112051 10 124 0.0 0.0 0.00 0.00 0.00 85 1014.8
20260505111549 9 155 0.0 1.6 0.00 0.00 0.00 86 1014.7
20260505111046 10 148 0.0 0.0 0.00 0.00 0.00 85 1014.5
20260505110542 9 149 0.0 0.0 0.00 0.00 0.00 85 1014.3
20260505102015 11 123 0.0 1.6 0.00 0.00 0.00 77 1014.4
20260505101513 11 153 0.0 0.0 0.00 0.00 0.00 77 1014.4
20260505101010 11 148 0.0 1.6 0.00 0.00 0.00 75 1014.4
20260505100507 11 156 0.0 0.0 0.00 0.00 0.00 73 1014.4
20260505100003 11 153 0.0 0.0 0.00 0.00 0.00 73 1014.6
20260505095459 11 161 0.0 0.0 0.00 0.00 0.00 73 1014.6
20260505094955 12 159 0.0 0.0 0.00 0.00 0.00 72 1014.5
20260505094453 12 151 0.0 0.0 0.00 0.00 0.00 71 1014.4
20260505093949 12 150 0.0 0.0 0.00 0.00 0.00 69 1014.3
20260505093445 13 145 0.0 0.0 0.00 0.00 0.00 67 1014.3
20260505092943 13 156 0.0 0.0 0.00 0.00 0.00 66 1014.4
20260505092440 13 148 0.0 0.0 0.00 0.00 0.00 65 1014.5
20260505091938 13 237 1.6 3.2 0.00 0.00 0.00 65 1014.4
20260505091435 13 179 1.6 3.2 0.00 0.00 0.00 66 1014.3
20260505090933 13 141 0.0 0.0 0.00 0.00 0.00 66 1014.4
20260505090431 13 326 0.0 0.0 0.00 0.00 0.00 66 1014.3
20260505085928 13 162 0.0 1.6 0.00 0.00 0.00 65 1014.4
20260505085426 13 167 0.0 0.0 0.00 0.00 0.00 64 1014.5
20260505084924 14 138 0.0 3.2 0.00 0.00 0.00 64 1014.5
20260505084422 14 156 0.0 0.0 0.00 0.00 0.00 64 1014.5
20260505083920 14 176 1.6 3.2 0.00 0.00 0.00 62 1014.4
20260505083417 14 202 1.6 1.6 0.00 0.00 0.00 63 1014.5
20260505082913 15 177 1.6 1.6 0.00 0.00 0.00 62 1014.5
20260505082409 15 158 0.0 3.2 0.00 0.00 0.00 61 1014.2
20260505081906 15 164 0.0 6.4 0.00 0.00 0.00 61 1014.5
20260505081402 14 290 1.6 3.2 0.00 0.00 0.00 63 1014.5
20260505080859 14 205 1.6 1.6 0.00 0.00 0.00 64 1014.3
20260505080355 14 136 0.0 0.0 0.00 0.00 0.00 64 1014.4
20260505075851 15 157 0.0 1.6 0.00 0.00 0.00 63 1014.4
20260505075348 14 153 0.0 1.6 0.00 0.00 0.00 63 1014.4
20260505074845 15 194 1.6 3.2 0.00 0.00 0.00 62 1014.4
20260505074342 14 181 1.6 1.6 0.00 0.00 0.00 63 1014.3
20260505073839 13 152 0.0 3.2 0.00 0.00 0.00 64 1014.4
20260505073337 14 148 0.0 0.0 0.00 0.00 0.00 64 1014.4
20260505072834 14 145 0.0 0.0 0.00 0.00 0.00 64 1014.5
20260505072330 14 218 0.0 1.6 0.00 0.00 0.00 63 1014.4
20260505071826 15 183 0.0 0.0 0.00 0.00 0.00 63 1014.4
20260505071323 15 140 0.0 0.0 0.00 0.00 0.00 63 1014.5
20260505070821 15 153 0.0 1.6 0.00 0.00 0.00 61 1014.3
20260505070318 15 168 0.0 1.6 0.00 0.00 0.00 61 1014.4
20260505065812 15 157 0.0 3.2 0.00 0.00 0.00 60 1014.4
20260505065309 16 217 1.6 3.2 0.00 0.00 0.00 60 1014.5
20260505064807 16 161 3.2 6.4 0.00 0.00 0.00 59 1014.6
20260505064304 16 132 0.0 3.2 0.00 0.00 0.00 59 1014.6
20260505063802 16 154 0.0 1.6 0.00 0.00 0.00 60 1014.5
20260505063258 16 199 1.6 1.6 0.00 0.00 0.00 59 1014.7
20260505062754 16 157 0.0 3.2 0.00 0.00 0.00 59 1014.6
20260505062252 16 150 1.6 3.2 0.00 0.00 0.00 60 1014.5
20260505061748 16 149 0.0 0.0 0.00 0.00 0.00 59 1014.6
20260505061246 16 188 1.6 4.8 0.00 0.00 0.00 58 1014.7
20260505060743 16 194 3.2 4.8 0.00 0.00 0.00 58 1014.6
20260505060241 16 273 3.2 4.8 0.00 0.00 0.00 58 1014.6
20260505055735 16 276 3.2 4.8 0.00 0.00 0.00 58 1014.6
20260505055232 16 163 1.6 3.2 0.00 0.00 0.00 58 1014.5
20260505054730 16 163 3.2 6.4 0.00 0.00 0.00 58 1014.5
20260505054227 16 324 1.6 3.2 0.00 0.00 0.00 59 1014.4
20260505053726 16 183 0.0 3.2 0.00 0.00 0.00 59 1014.5
20260505053221 17 227 3.2 4.8 0.00 0.00 0.00 59 1014.5
20260505052719 17 228 1.6 6.4 0.00 0.00 0.00 58 1014.3
20260505052216 16 244 3.2 3.2 0.00 0.00 0.00 59 1014.4
20260505051713 17 164 1.6 3.2 0.00 0.00 0.00 59 1014.4
20260505051211 17 210 1.6 6.4 0.00 0.00 0.00 58 1014.4
20260505050709 17 240 4.8 4.8 0.00 0.00 0.00 59 1014.3
20260505050207 17 171 0.0 4.8 0.00 0.00 0.00 59 1014.2
20260505041636 16 151 0.0 3.2 0.00 0.00 0.00 61 1014.5
20260505041134 16 157 0.0 0.0 0.00 0.00 0.00 63 1014.3
20260505040630 16 149 0.0 0.0 0.00 0.00 0.00 63 1014.3
20260505040128 16 143 0.0 0.0 0.00 0.00 0.00 62 1014.4
20260505035624 16 179 0.0 1.6 0.00 0.00 0.00 61 1014.3
20260505035120 16 149 0.0 0.0 0.00 0.00 0.00 62 1014.3
20260505034617 16 166 0.0 1.6 0.00 0.00 0.00 61 1014.2
20260505034114 17 149 0.0 1.6 0.00 0.00 0.00 60 1014.4
20260505033611 17 170 0.0 1.6 0.00 0.00 0.00 59 1014.2
20260505033110 17 193 1.6 3.2 0.00 0.00 0.00 59 1014.3
20260505032607 16 159 0.0 0.0 0.00 0.00 0.00 60 1014.4
20260505032103 16 160 0.0 0.0 0.00 0.00 0.00 59 1014.3
20260505031601 16 150 0.0 0.0 0.00 0.00 0.00 59 1014.3
20260505031056 16 140 0.0 0.0 0.00 0.00 0.00 58 1014.2
20260505030554 17 156 0.0 1.6 0.00 0.00 0.00 58 1014.4
20260505030049 17 153 0.0 0.0 0.00 0.00 0.00 57 1014.4
20260505025545 17 145 0.0 0.0 0.00 0.00 0.00 56 1014.4
20260505025045 17 140 0.0 0.0 0.00 0.00 0.00 57 1014.5
20260505024541 17 153 0.0 0.0 0.00 0.00 0.00 57 1014.4
20260505024038 17 149 0.0 1.6 0.00 0.00 0.00 56 1014.4
20260505023535 17 230 1.6 3.2 0.00 0.00 0.00 56 1014.6
20260505023033 17 160 0.0 0.0 0.00 0.00 0.00 57 1014.5
20260505022530 17 142 0.0 1.6 0.00 0.00 0.00 57 1014.5
20260505022027 17 156 0.0 0.0 0.00 0.00 0.00 55 1014.4
20260505021524 17 167 0.0 0.0 0.00 0.00 0.00 55 1014.6
20260505021021 17 205 1.6 1.6 0.00 0.00 0.00 55 1014.5
20260505020520 17 157 0.0 0.0 0.00 0.00 0.00 56 1014.4
20260505020018 17 148 0.0 0.0 0.00 0.00 0.00 55 1014.4
20260505015515 18 152 0.0 0.0 0.00 0.00 0.00 54 1014.4
20260505015012 18 199 1.6 3.2 0.00 0.00 0.00 53 1014.3
20260505014509 18 158 0.0 3.2 0.00 0.00 0.00 54 1014.3
20260505014006 18 189 1.6 1.6 0.00 0.00 0.00 54 1014.5
20260505013503 18 200 1.6 3.2 0.00 0.00 0.00 54 1014.4
20260505013000 18 170 0.0 1.6 0.00 0.00 0.00 54 1014.3
20260505012458 18 165 0.0 0.0 0.00 0.00 0.00 54 1014.4
20260505011955 18 127 1.6 3.2 0.00 0.00 0.00 53 1014.2
20260505011450 18 163 0.0 1.6 0.00 0.00 0.00 54 1014.3
20260505010947 18 147 0.0 1.6 0.00 0.00 0.00 54 1014.2
20260505010443 19 153 0.0 1.6 0.00 0.00 0.00 54 1014.3
20260505005939 20 105 0.0 1.6 0.00 0.00 0.00 53 1014.1
20260505005436 20 165 1.6 3.2 0.00 0.00 0.00 53 1014.1
20260505004934 20 100 0.0 3.2 0.00 0.00 0.00 52 1014.1
20260505004430 20 177 1.6 1.6 0.00 0.00 0.00 53 1013.9
20260505003927 20 96 0.0 3.2 0.00 0.00 0.00 54 1014.0
20260505003425 20 155 0.0 3.2 0.00 0.00 0.00 54 1013.8
20260505002921 21 135 0.0 4.8 0.00 0.00 0.00 53 1013.8
20260505002417 21 152 0.0 3.2 0.00 0.00 0.00 53 1013.7
20260505001916 21 159 1.6 1.6 0.00 0.00 0.00 53 1013.9
20260505001413 21 158 1.6 3.2 0.00 0.00 0.00 53 1013.7
20260505000910 21 164 1.6 3.2 0.00 0.00 0.00 52 1013.8
20260505000408 21 161 1.6 4.8 0.00 0.00 0.00 53 1013.6
20260504235904 22 250 4.8 6.4 0.00 0.00 0.00 52 1013.6
20260504235401 22 173 3.2 6.4 0.00 0.00 0.00 51 1013.6
20260504234857 22 162 1.6 3.2 0.00 0.00 0.00 50 1013.7
20260504234355 22 228 4.8 6.4 0.00 0.00 0.00 50 1013.7
20260504233852 23 170 0.0 4.8 0.00 0.00 0.00 50 1013.6
20260504233347 23 148 3.2 4.8 0.00 0.00 0.00 50 1013.6
20260504232844 23 348 1.6 9.7 0.00 0.00 0.00 50 1013.7
20260504232341 23 171 1.6 11.3 0.00 0.00 0.00 49 1013.7
20260504231838 23 118 3.2 11.3 0.00 0.00 0.00 50 1013.7
20260504231334 23 207 1.6 4.8 0.00 0.00 0.00 49 1013.4
20260504230831 23 201 3.2 6.4 0.00 0.00 0.00 49 1013.7
20260504230329 23 162 1.6 3.2 0.00 0.00 0.00 48 1013.4
20260504225827 24 315 3.2 12.9 0.00 0.00 0.00 48 1013.6
20260504225323 25 202 4.8 6.4 0.00 0.00 0.00 47 1013.7
20260504224821 24 205 1.6 9.7 0.00 0.00 0.00 47 1013.6
20260504224318 24 210 8.0 12.9 0.00 0.00 0.00 47 1013.7